(341249) = 2007 RD205

Discovered at Kitt Peak on 2007-09-09 by Spacewatch.

Orbit

Orbit type: Main Belt

Note: WebGL enabled browser required.

epoch2024-03-31.0
epoch JD2460400.5
perihelion date2023-04-17.99116
perihelion JD2460052.49116
argument of perihelion (°)260.03583
ascending node (°)206.34273
inclination (°)9.27706
eccentricity0.0536612
perihelion distance (AU)2.6903284
Tisserand w.r.t. Jupiter3.3
ΔV w.r.t. Earth (km/sec)10.6
semimajor axis (AU)2.8428807
mean anomaly (°)71.55767
mean daily motion (°/day)0.20562030
aphelion distance (AU)2.995
period (years)4.79
P-vector [x]-0.27626609
P-vector [y]0.93281615
P-vector [z]0.23136783
Q-vector [x]-0.95841527
Q-vector [y]-0.24947899
Q-vector [z]-0.13856551
absolute magnitude16.48
phase slope0.15
uncertainty0
referenceMPEC 2024-F14
observations used255
oppositions15
arc length (days)7800
first opposition used2002
last opposition used2024
residual rms (arc-secs)0.69
perturbers coarse indicatorM-v
perturbers precise indicator003Ek
first observation date used2002-11-08.0
last observation date used2024-03-17.0
computer nameMPCLINUX
JD of orbit computation2456731.527680
perihelion JD uncertainty (days)5.6711E-04
argument of perihelion uncertainty (°)1.2674E-04
ascending node uncertainty (°)2.2143E-05
inclination uncertainty (°)5.8065E-06
eccentricity uncertainty 3.3074E-08
perihelion distance uncertainty (AU)1.0097E-07
Minimum Orbit Intersection Distances (in AU)
for orbit epoch: 2460400.5, reference: E2024-GB3
Mercury2.38358
Venus1.98738
Earth1.72695
Mars1.12054
Jupiter2.10909
Saturn6.36317
Uranus15.6819
Neptune27.0078

Observations

257 total observations over interval: 2002 11 08.175530 – 2024 03 17.513003
These data are available for download (format description).

Date (UT) J2000 RA J2000 Dec Magn Location Ref
2002 11 08.175530 23 11 47.320 -00 24 08.85 21.21 V 645 – Apache Point-Sloan Digital Sky Survey MPS 229861
2002 11 08.179002 23 11 47.339 -00 24 09.60 22.06   645 – Apache Point-Sloan Digital Sky Survey MPS 229861
2005 04 09.18511 13 09 18.06 -09 20 28.1 20.2 V 691 – Steward Observatory, Kitt Peak-Spacewatch MPS 229861
2005 04 09.20302 13 09 17.23 -09 20 19.9 20.1 V 691 – Steward Observatory, Kitt Peak-Spacewatch MPS 229861
2005 04 09.22094 13 09 16.37 -09 20 11.5 20.5 V 691 – Steward Observatory, Kitt Peak-Spacewatch MPS 229861
2005 05 13.25968 12 49 27.45 -05 24 55.3 20.7 R G96 – Mt. Lemmon Survey MPS 229861
2005 05 13.26977 12 49 27.27 -05 24 52.0 19.9 R G96 – Mt. Lemmon Survey MPS 229861
2005 05 13.27986 12 49 27.09 -05 24 49.0 19.0 R G96 – Mt. Lemmon Survey MPS 229861
2005 05 13.28998 12 49 26.90 -05 24 46.0 19.6 R G96 – Mt. Lemmon Survey MPS 229861
2007 09 09.46199 01 05 46.44 +11 37 57.9   691 – Steward Observatory, Kitt Peak-Spacewatch MPS 216550
2007 09 09.47962 01 05 45.96 +11 37 52.9   691 – Steward Observatory, Kitt Peak-Spacewatch MPS 216550
2007 09 09.49471 01 05 45.52 +11 37 48.7   691 – Steward Observatory, Kitt Peak-Spacewatch MPS 216550
2007 09 15.45285 01 02 44.85 +11 07 15.1   691 – Steward Observatory, Kitt Peak-Spacewatch MPS 216550
2007 09 15.47049 01 02 44.24 +11 07 09.0   691 – Steward Observatory, Kitt Peak-Spacewatch MPS 216550
2007 09 15.48813 01 02 43.61 +11 07 03.0   691 – Steward Observatory, Kitt Peak-Spacewatch MPS 216550
2007 09 24.42086 00 57 09.17 +10 11 02.6 20.2 V 691 – Steward Observatory, Kitt Peak-Spacewatch MPS 218151
2007 09 24.43850 00 57 08.41 +10 10 55.7 20.2 V 691 – Steward Observatory, Kitt Peak-Spacewatch MPS 218151
2007 09 24.45614 00 57 07.67 +10 10 48.0 20.5 V 691 – Steward Observatory, Kitt Peak-Spacewatch MPS 218151
2007 11 01.17829 00 31 29.56 +05 23 36.7 21.0 V G96 – Mt. Lemmon Survey MPS 223517
2007 11 01.18490 00 31 29.38 +05 23 33.8 20.5 V G96 – Mt. Lemmon Survey MPS 223517
2007 11 01.19149 00 31 29.17 +05 23 31.0 20.8 V G96 – Mt. Lemmon Survey MPS 223517
2007 11 01.19809 00 31 28.95 +05 23 28.8 20.5 V G96 – Mt. Lemmon Survey MPS 223517
2009 02 02.29867 07 36 50.36 +07 08 23.7 20.1 V G96 – Mt. Lemmon Survey MPS 272687
2009 02 02.30471 07 36 50.07 +07 08 25.9 20.4 V G96 – Mt. Lemmon Survey MPS 272687
2009 02 02.31064 07 36 49.78 +07 08 27.6 20.2 V G96 – Mt. Lemmon Survey MPS 272687
2010 04 17.534769 14 37 09.011 -12 53 35.90 20.86 g F51 – Pan-STARRS 1, Haleakala MPS 337388
2010 04 17.544299 14 37 08.553 -12 53 31.72 20.89 g F51 – Pan-STARRS 1, Haleakala MPS 337388
2012 09 16.43242 02 32 39.04 +15 17 51.3 20.1 V G96 – Mt. Lemmon Survey MPS 431919
2012 09 16.43756 02 32 38.97 +15 17 50.1 20.3 V G96 – Mt. Lemmon Survey MPS 431919
2012 09 16.44281 02 32 38.94 +15 17 49.2 20.3 V G96 – Mt. Lemmon Survey MPS 431919
2012 09 16.44802 02 32 38.86 +15 17 47.9 20.1 V G96 – Mt. Lemmon Survey MPS 431919
2012 10 08.26462 02 23 52.03 +13 25 19.6 20.2 V 691 – Steward Observatory, Kitt Peak-Spacewatch MPS 434148
2012 10 08.28229 02 23 51.34 +13 25 12.7 20.2 V 691 – Steward Observatory, Kitt Peak-Spacewatch MPS 434148
2012 10 08.29993 02 23 50.66 +13 25 05.7 20.4 V 691 – Steward Observatory, Kitt Peak-Spacewatch MPS 434148
2012 10 16.19325 02 18 26.99 +12 30 35.6 20.5 V 691 – Steward Observatory, Kitt Peak-Spacewatch MPS 435149
2012 10 16.21093 02 18 26.20 +12 30 29.6 20.1 V 691 – Steward Observatory, Kitt Peak-Spacewatch MPS 435149
2012 10 16.22860 02 18 25.40 +12 30 21.9 20.3 V 691 – Steward Observatory, Kitt Peak-Spacewatch MPS 435149
2012 10 18.383161 02 16 49.048 +12 14 40.17 20.5 w F51 – Pan-STARRS 1, Haleakala MPS 435149
2012 10 18.413467 02 16 47.617 +12 14 26.82 20.0 w F51 – Pan-STARRS 1, Haleakala MPS 435149
2012 10 18.428726 02 16 46.894 +12 14 20.15 19.8 w F51 – Pan-STARRS 1, Haleakala MPS 435149
2012 11 02.323547 02 05 08.074 +10 22 46.79 20.1 i F51 – Pan-STARRS 1, Haleakala MPS 441633
2012 11 02.335705 02 05 07.498 +10 22 41.41 19.7 i F51 – Pan-STARRS 1, Haleakala MPS 441633
2012 11 06.294945 02 02 07.101 +09 53 54.63 20.3 w F51 – Pan-STARRS 1, Haleakala MPS 441633
2012 11 06.309864 02 02 06.411 +09 53 48.33 20.0 w F51 – Pan-STARRS 1, Haleakala MPS 441633
2012 11 06.324814 02 02 05.746 +09 53 42.51 20.7 w F51 – Pan-STARRS 1, Haleakala MPS 441633
2012 11 06.339749 02 02 05.026 +09 53 35.51 20.0 w F51 – Pan-STARRS 1, Haleakala MPS 441633
2012 11 13.24053 01 57 13.57 +09 06 28.5 19.9 V G96 – Mt. Lemmon Survey MPS 443331
2012 11 13.24635 01 57 13.35 +09 06 26.6 20.0 V G96 – Mt. Lemmon Survey MPS 443331
2012 11 13.25225 01 57 13.14 +09 06 24.1 20.0 V G96 – Mt. Lemmon Survey MPS 443331
2012 11 13.25808 01 57 12.88 +09 06 21.7 20.7 V G96 – Mt. Lemmon Survey MPS 443331
2014 01 11.48285 09 38 29.896 +00 25 33.86 20.4 i F51 – Pan-STARRS 1, Haleakala MPS 496904
2014 01 11.49554 09 38 29.507 +00 25 33.84 20.2 i F51 – Pan-STARRS 1, Haleakala MPS 496904
2014 01 26.43908 09 29 02.098 +00 50 23.46 20.0 w F51 – Pan-STARRS 1, Haleakala MPS 500143
2014 01 26.45145 09 29 01.517 +00 50 25.83 20.0 w F51 – Pan-STARRS 1, Haleakala MPS 500143
2014 01 26.46386 09 29 00.934 +00 50 28.13 20.1 w F51 – Pan-STARRS 1, Haleakala MPS 500143
2014 01 26.47634 09 29 00.349 +00 50 30.42 20.2 w F51 – Pan-STARRS 1, Haleakala MPS 500143
2014 02 20.38354 09 09 09.528 +02 55 45.38 20.2 i F51 – Pan-STARRS 1, Haleakala MPS 502269
2014 02 20.39537 09 09 08.974 +02 55 49.95 19.9 i F51 – Pan-STARRS 1, Haleakala MPS 502269
2014 02 20.40727 09 09 08.423 +02 55 54.43 19.7 i F51 – Pan-STARRS 1, Haleakala MPS 502269
2014 02 20.41920 09 09 07.879 +02 55 58.95 19.7 i F51 – Pan-STARRS 1, Haleakala MPS 502269
2014 02 28.35173 09 03 43.980 +03 47 46.72 20.1 w F51 – Pan-STARRS 1, Haleakala MPS 505308
2014 02 28.36339 09 03 43.530 +03 47 51.32 20.1 w F51 – Pan-STARRS 1, Haleakala MPS 505308
2014 02 28.37607 09 03 43.040 +03 47 56.38 20.2 w F51 – Pan-STARRS 1, Haleakala MPS 505308
2015 03 30.58290 16 08 26.195 -16 34 17.84 21.4 w F51 – Pan-STARRS 1, Haleakala MPS 597555
2015 03 30.59554 16 08 26.140 -16 34 14.82 21.0 w F51 – Pan-STARRS 1, Haleakala MPS 597555
2015 03 30.60819 16 08 26.113 -16 34 12.27 21.0 w F51 – Pan-STARRS 1, Haleakala MPS 597555
2015 03 30.62081 16 08 26.079 -16 34 09.27 21.0 w F51 – Pan-STARRS 1, Haleakala MPS 597555
2015 04 23.54802 16 01 07.940 -14 43 52.63 20.7 w F51 – Pan-STARRS 1, Haleakala MPS 603002
2015 04 23.56076 16 01 07.499 -14 43 48.48 21.0 w F51 – Pan-STARRS 1, Haleakala MPS 603002
2015 04 23.57347 16 01 07.039 -14 43 44.47 21.1 w F51 – Pan-STARRS 1, Haleakala MPS 603002
2015 04 23.58615 16 01 06.584 -14 43 40.35 21.5 w F51 – Pan-STARRS 1, Haleakala MPS 603002
2015 04 25.51343 15 59 58.666 -14 33 20.00 20.6 w F51 – Pan-STARRS 1, Haleakala MPS 604515
2015 04 25.52552 15 59 58.198 -14 33 16.01 20.6 w F51 – Pan-STARRS 1, Haleakala MPS 604515
2015 04 25.53752 15 59 57.743 -14 33 12.27 20.7 w F51 – Pan-STARRS 1, Haleakala MPS 604515
2015 04 25.54961 15 59 57.280 -14 33 08.18 21.0 w F51 – Pan-STARRS 1, Haleakala MPS 604515
2015 05 26.22898 15 36 31.18 -11 48 20.4 20.6 V G96 – Mt. Lemmon Survey MPS 609733
2015 05 26.23438 15 36 30.93 -11 48 18.4 20.3 V G96 – Mt. Lemmon Survey MPS 609733
2015 05 26.23973 15 36 30.66 -11 48 18.0 20.7 V G96 – Mt. Lemmon Survey MPS 609733
2015 05 26.24509 15 36 30.37 -11 48 16.0 20.9 V G96 – Mt. Lemmon Survey MPS 609733
2016 06 07.53286 21 44 34.252 -02 04 33.12 21.4 w F51 – Pan-STARRS 1, Haleakala MPS 716474
2016 06 07.54514 21 44 34.428 -02 04 29.76 21.5 w F51 – Pan-STARRS 1, Haleakala MPS 716474
2016 06 07.55743 21 44 34.597 -02 04 26.50 21.5 w F51 – Pan-STARRS 1, Haleakala MPS 716474
2016 08 30.34596 21 07 27.970 -03 46 57.22 20.6 w F51 – Pan-STARRS 1, Haleakala MPS 727399
2016 08 30.35642 21 07 27.557 -03 47 01.01 20.9 w F51 – Pan-STARRS 1, Haleakala MPS 727399
2016 08 30.35836 21 07 27.469 -03 47 01.66 20.9 w F51 – Pan-STARRS 1, Haleakala MPS 727399
2016 08 30.36885 21 07 27.055 -03 47 05.52 21.2 w F51 – Pan-STARRS 1, Haleakala MPS 727399
2016 08 30.37077 21 07 26.976 -03 47 06.09 21.1 w F51 – Pan-STARRS 1, Haleakala MPS 727399
2016 08 30.38128 21 07 26.552 -03 47 09.83 21.7 w F51 – Pan-STARRS 1, Haleakala MPS 727399
